Regional Weather Roundup
Issued by NWS

Home | Current Version | Previous Version | Text Only | Print | Product List | Glossary Off
Versions: 1 2 3 4 5 6 7 8 9 10 11 12 13 14 15 16 17 18 19 20 21 22 23 24 25 26 27

000
ASUS45 KBOU 261407
RWRCO

WEATHER ROUNDUP FOR COLORADO
NATIONAL WEATHER SERVICE DENVER/BOULDER CO
800 AM MDT THU MAY 26 2016

NOTE: "FAIR" INDICATES FEW OR NO CLOUDS BELOW 12000 FEET WITH NO
SIGNIFICANT WEATHER AND/OR OBSTRUCTIONS TO VISIBILITY.

COZ001>005-013-030-031-261500-
...NORTHWEST COLORADO...

CITY           SKY/WX    TMP DP  RH WIND       PRES   REMARKS
CRAIG          FAIR      40  33  76 CALM      30.04F
HAYDEN         FAIR      41  30  65 E6        30.04F
MEEKER         FAIR      42  28  57 CALM      30.02F
MOUNT WERNER   NOT AVBL
STEAMBOAT SPGS FAIR      40  30  68 CALM      30.04F
WALDEN         FAIR      36  27  69 CALM      30.11S
$$

COZ006>008-011-261500-
...WEST CENTRAL VALLEYS...

CITY           SKY/WX    TMP DP  RH WIND       PRES   REMARKS
GRAND JUNCTION FAIR      56  29  35 SE10      29.91S
MONTROSE       FAIR      54  26  34 E10       29.97S
EAGLE          SUNNY     39  23  52 CALM      30.08S
RIFLE          FAIR      48  32  53 NW3       29.98S
DELTA          FAIR      59  22  24 NE8       29.95S
NUCLA          FAIR      55  23  28 NE8       29.99R
$$

COZ017>023-064>068-261500-
...SOUTHWEST COLORADO...

CITY           SKY/WX    TMP DP  RH WIND       PRES   REMARKS
DURANGO        FAIR      52  30  43 NW10      30.05S
CORTEZ         CLOUDY    56  24  29 SE22G30   29.98S
PAGOSA SPRINGS FAIR      50  26  39 CALM      30.07F
TELLURIDE      FAIR      44  24  46 E3        30.12F
WOLF CREEK PAS FAIR      32  19  59 SW6       30.23F WCI  26
$$

COZ009-010-012-014-032>034-037-058>063-261500-
...CENTRAL COLORADO...

CITY           SKY/WX    TMP DP  RH WIND       PRES   REMARKS
ASPEN          FAIR      45  22  40 CALM      30.04F
BUENA VISTA    FAIR      42  17  35 NW3       30.09S
COPPER MTN     NOT AVBL
BERTHOUD PASS  HAZE      27  18  69 E18G24    30.23S VSB<1/4 WCI  13
COTTONWOOD PAS FAIR      46  16  29 CALM      30.14S
GUNNISON       FAIR      41  21  45 NE3       30.10S
KREMMLING      FAIR      37  27  65 CALM      30.09F
LEADVILLE      PTSUNNY   34  13  41 W3        30.13S
MONARCH PASS   FAIR      34  18  51 NE5       30.31F WCI  30
SALIDA         PTSUNNY   41  22  46 CALM      30.15S
SUNLIGHT       FAIR      39  18  41 SE3       30.18F
WILKERSON PASS PTSUNNY   39  28  65 CALM      30.22F
$$

COZ069>075-261500-
...SAN LUIS VALLEY/SANGRE DE CRISTO MOUNTAINS...

CITY           SKY/WX    TMP DP  RH WIND       PRES   REMARKS
ALAMOSA        FAIR      49  28  44 NE5       30.06R
LA VETA PASS   FAIR      45  21  39 CALM      30.15F
SAGUACHE       PTSUNNY   50  27  40 NW10      30.07F
$$

COZ035-036-038>040-261500-
...NORTHERN COLORADO FRONT RANGE...

CITY           SKY/WX    TMP DP  RH WIND       PRES   REMARKS
DENVER INTL AP PTSUNNY   54  44  69 W8        29.99F
DMNS CITY PARK   N/A     57  40  52 N7        29.99S
AURORA         PTSUNNY   53  44  71 W5        30.01S
FRONT RANGE AP CLOUDY    50  45  81 W5        30.01R
ERIE MUNI ARPT PTSUNNY   54  46  75 CALM      29.99F
BOULDER MUN AP CLOUDY    57  37  47 SW5       29.98F
CENTENNIAL     CLOUDY    53  39  59 NW7       30.00F
BROOMFIELD     PTSUNNY   57  41  54 CALM      30.01S
FORT COLLINS   FAIR      52  43  71 CALM      30.00S
LONGMONT       CLOUDY    58  46  63 CALM      30.00F
$$

COZ041-046-047-076>085-087-088-261500-
...PIKES PEAK/PALMER DIVIDE AND SOUTHERN FOOTHILLS...

CITY           SKY/WX    TMP DP  RH WIND       PRES   REMARKS
COLO. SPRINGS  FAIR      58  41  53 N5        30.02F
A. F. ACADEMY  FAIR      54  37  54 N10       30.02S
SCHRIEVER AFB  NOT AVBL
ELLICOTT       CLOUDY   N/A N/A N/A E10       30.00R
FALCON         FAIR      53  42  65 NE5       30.06R
FORT CARSON    FAIR      57  40  52 N8        30.00S
LIMON          PTSUNNY   58  48  69 CALM      29.99R
MONUMENT HILL  PTSUNNY   46  37  71 NW7       30.06F
TRINIDAD       FAIR      53  35  50 VRB5      29.99F
$$

COZ042>045-048>051-090-091-261500-
...NORTHEAST COLORADO...

CITY           SKY/WX    TMP DP  RH WIND       PRES   REMARKS
GREELEY ARPT   FAIR      52  45  76 N3        29.99F
AKRON          PTSUNNY   58  42  55 N10       29.97S
BURLINGTON     FAIR      62  45  53 NE8       29.92S
WRAY           FAIR      61  50  67 N9        29.93F
STERLING       PTSUNNY   54  46  76 CALM      29.95S
HOLYOKE        NOT AVBL
FORT MORGAN    FAIR      59  41  51 NW7       29.97F
$$

COZ086-089-092>099-261500-
...SOUTHEAST COLORADO...

CITY           SKY/WX    TMP DP  RH WIND       PRES   REMARKS
PUEBLO         CLOUDY    60  47  61 NE7       29.96S
LA JUNTA       CLOUDY    61  51  70 NE6       29.92F
LAMAR          CLOUDY    60  51  72 NE6       29.87F
SPRINGFIELD      N/A     56  52  86 NW15      29.88F
$$




USA.gov is the U.S. government's official web portal to all federal, state and local government web resources and services.